This is the latest recevied weather packets stored in our database for station/object N1ORT. If no packets are shown the sender has not sent any weather packets the latest 10 day(s).
| Time | Temp. | Humidity | Pressure | Rain* | Wind** | Luminosity | Snow |
|---|---|---|---|---|---|---|---|
| 1777316607 | 20° C | 36% | 1022.9 hPa | 0 mm | - | 731 W/m² | - |
| 1777316304 | 20.56° C | 35% | 1022.8 hPa | 0 mm | - | 744 W/m² | - |
| 1777316001 | 20.56° C | 35% | 1022.6 hPa | 0 mm | - | 758 W/m² | - |
| 1777315695 | 21.11° C | 36% | 1022.7 hPa | 0 mm | - | 772 W/m² | - |
| 1777315392 | 21.11° C | 34% | 1022.8 hPa | 0 mm | - | 783 W/m² | - |
| 1777315090 | 20.56° C | 39% | 1022.9 hPa | 0 mm | - | 796 W/m² | - |
| 1777314790 | 20.56° C | 36% | 1022.8 hPa | 0 mm | - | 806 W/m² | - |
| 1777314487 | 20° C | 35% | 1023.1 hPa | 0 mm | - | 818 W/m² | - |
| 1777314184 | 20° C | 35% | 1022.9 hPa | 0 mm | - | 827 W/m² | - |
| 1777313881 | 21.11° C | 34% | 1022.9 hPa | 0 mm | - | 839 W/m² | - |
| 1777313578 | 20° C | 35% | 1023.1 hPa | 0 mm | - | 848 W/m² | - |
| 1777313271 | 20° C | 36% | 1023.2 hPa | 0 mm | - | 857 W/m² | - |
| 1777312966 | 20.56° C | 36% | 1023 hPa | 0 mm | - | 866 W/m² | - |
| 1777312663 | 20° C | 37% | 1023.1 hPa | 0 mm | - | 874 W/m² | - |
| 1777312360 | 20.56° C | 36% | 1023 hPa | 0 mm | - | 883 W/m² | - |
| 1777312058 | 20° C | 37% | 1023.1 hPa | 0 mm | - | 892 W/m² | - |
| 1777311754 | 19.44° C | 39% | 1023 hPa | 0 mm | - | 898 W/m² | - |
| 1777311452 | 20.56° C | 34% | 1023.1 hPa | 0 mm | - | 903 W/m² | - |
| 1777311149 | 20° C | 40% | 1023.2 hPa | 0 mm | - | 909 W/m² | - |
| 1777310847 | 19.44° C | 36% | 1023.1 hPa | 0 mm | - | 917 W/m² | - |
| 1777310544 | 20° C | 35% | 1023.2 hPa | 0 mm | - | 921 W/m² | - |
| 1777310241 | 20.56° C | 34% | 1023.2 hPa | 0 mm | - | 925 W/m² | - |
| 1777309938 | 20° C | 41% | 1023.1 hPa | 0 mm | - | 930 W/m² | - |
| 1777309636 | 20° C | 35% | 1023.2 hPa | 0 mm | - | 935 W/m² | - |
| 1777309333 | 20° C | 37% | 1023.3 hPa | 0 mm | - | 938 W/m² | - |
* Rain latest hour (hover to see other rain measurements)
** Current wind speed in m/s (hover to see current wind gust speed)